Probability
0 0 0 0 0 0 0 0 0 0 0 0 0 0 0 0 0 0 0 0 1 3 2 1 0 0 0 0 0 0 0 0 0 0 0 0 0 0 0 0 0 0 0 0
0 0 0 0 0 0 0 0 0 0 0 0 0 0 0 0 0 0 0 1 2 3 2 1 0 0 0 0 0 0 0 0 0 0 0 0 0 0 0 0 0 0 0 0
0 0 0 0 0 0 0 0 0 0 0 0 0 0 0 0 0 0 0 1 2 3 2 1 0 0 0 0 0 0 0 0 0 0 1 1 0 0 0 0 0 0 0 0
0 0 0 0 0 0 0 0 0 0 0 0 0 0 0 0 0 0 0 1 3 3 3 1 1 1 0 0 0 0 0 0 1 1 2 1 0 0 0 0 0 0 0 0
0 0 0 0 0 0 0 0 0 0 0 0 0 0 0 0 0 0 1 2 3 3 3 3 2 1 1 1 1 0 0 0 1 2 2 1 0 0 0 0 0 0 0 0
0 0 0 0 0 0 0 0 0 0 0 0 0 0 0 0 0 0 1 3 3 3 3 3 2 1 1 1 1 0 0 0 1 1 1 0 0 0 0 0 0 0 0 0
0 0 0 0 0 0 0 0 0 0 0 0 0 0 0 1 1 1 2 3 3 3 4 4 2 1 0 0 0 0 0 0 0 0 0 0 0 0 0 0 0 0 0 0
0 0 0 0 0 0 0 0 0 0 0 0 0 0 1 2 2 3 3 3 4 4 5 5 3 2 1 1 1 0 0 0 0 0 0 0 0 0 0 0 0 0 0 0
0 0 0 0 0 0 0 0 0 0 0 0 0 1 2 2 2 2 3 4 5 6 6 4 2 2 2 2 2 1 0 0 0 0 0 0 0 0 0 0 0 0 0 0
0 0 0 0 0 0 0 0 0 0 0 0 0 1 1 1 1 1 2 4 5 6 5 3 1 1 1 2 3 2 0 0 0 0 0 0 0 0 0 0 0 0 0 0
0 0 0 0 0 0 0 0 0 0 0 0 0 0 0 0 0 0 1 2 3 4 3 2 0 0 0 1 2 1 0 0 0 0 0 0 0 0 0 0 0 0 0 0
0 0 0 0 0 0 0 0 0 0 0 0 0 0 0 0 0 0 0 1 1 1 1 0 0 0 0 0 0 0 0 1 0 0 0 0 0 0 0 0 0 0 0 0
0 0 0 0 0 0 0 0 0 0 0 0 0 0 0 0 0 0 0 0 0 0 0 0 0 0 0 0 0 0 0 0 0 0 0 0 0 0 0 0 0 0 0 0
0 0 0 0 0 0 0 0 0 0 0 0 0 0 0 0 0 0 0 0 0 0 0 0 0 0 0 0 0 0 0 0 0 0 0 0 0 0 0 0 0 0 0 0
0 0 0 0 0 0 0 0 0 0 0 0 0 0 0 0 0 0 0 0 0 0 0 0 0 0 0 0 0 0 0 0 0 0 0 0 0 0 0 0 0 0 0 0
0 0 0 0 0 0 0 0 0 0 0 0 0 0 0 0 0 0 0 0 0 0 0 0 0 0 0 0 0 0 0 0 0 0 0 0 0 0 0 0 0 0 0 0
0 0 0 0 0 0 0 0 0 0 0 0 0 0 0 0 0 0 0 0 0 0 0 0 0 0 0 0 0 0 0 0 0 0 0 0 0 0 0 0 0 0 0 0
0 0 0 0 0 0 0 0 0 0 0 0 0 0 0 0 0 0 0 0 0 0 0 0 0 0 0 0 0 0 0 0 0 0 0 0 0 0 0 0 0 0 0 0
0 0 0 0 0 0 0 0 0 0 0 0 0 0 0 0 0 0 0 0 0 0 0 0 0 0 0 0 0 0 0 0 0 0 0 0 0 0 0 0 0 0 0 0
0 0 0 0 0 0 0 0 0 0 0 0 0 0 0 0 0 0 0 0 0 0 0 0 0 0 0 0 0 0 0 0 0 0 0 0 0 0 0 0 0 0 0 0
0 0 0 0 0 0 0 0 0 0 0 0 0 0 0 0 0 0 0 0 0 0 0 0 0 0 0 0 0 0 0 0 0 0 0 0 0 0 0 0 0 0 0 0
0 0 0 0 0 0 0 0 0 0 0 0 0 0 0 0 0 0 0 0 0 0 0 0 0 0 0 0 0 0 0 0 0 0 0 0 0 0 0 0 0 0 0 0
0 0 0 0 0 0 0 0 0 0 0 0 0 0 0 0 0 0 0 0 0 0 0 0 0 0 0 0 0 0 0 0 0 0 0 0 0 0 0 0 0 0 0 0
0 0 0 0 0 0 0 0 0 0 0 0 0 0 0 0 0 0 0 0 0 0 0 0 0 0 0 0 0 0 0 0 0 0 0 0 0 0 0 0 0 0 0 0
0 0 0 0 0 0 0 0 0 0 0 0 0 0 0 0 0 0 0 0 0 0 0 0 0 0 0 0 0 0 0 0 0 0 0 0 0 0 0 0 0 0 0 0
0 0 0 0 0 0 0 0 0 0 0 0 0 0 0 0 0 0 0 0 0 0 0 0 0 0 0 0 0 0 0 0 0 0 0 0 0 0 0 0 0 0 0 0
0 0 0 0 0 0 0 0 0 0 0 0 0 0 0 0 0 0 0 0 0 0 0 0 0 0 0 0 0 0 0 0 0 0 0 0 0 0 0 0 0 0 0 0
Wind_Speed
5 5 4 5 5 6 6 6 4 2 3 5 6 7 9 10 11 11 11 11 11 9 8 7 6 6 5 5 5 5 4 4 3 3 3 2 2 2 2 3 3 3 2 3
7 7 6 7 7 7 7 6 5 4 3 4 6 7 8 10 10 10 10 11 11 11 10 8 7 6 6 5 5 5 4 4 3 3 3 2 2 2 2 2 2 3 2 3
6 6 7 8 8 8 7 6 5 4 3 5 7 8 9 10 10 10 10 9 9 10 10 9 8 7 7 6 5 5 5 4 4 3 2 2 1 2 1 1 1 2 2 2
5 6 8 4 3 5 5 5 4 4 4 7 7 7 7 8 9 9 9 9 9 8 8 8 8 7 6 6 6 5 5 4 3 3 3 2 1 1 0 1 1 1 1 2
5 6 6 4 4 4 4 3 3 4 6 7 7 8 6 8 8 8 8 7 6 7 7 7 8 8 7 6 5 5 5 4 4 3 3 2 1 0 0 1 1 0 0 0
6 6 6 2 2 2 2 2 1 3 5 6 8 6 5 8 9 8 8 7 6 6 7 7 6 7 7 6 5 5 4 4 4 3 3 2 1 0 0 1 0 1 1 0
8 8 4 1 2 2 3 1 3 4 5 6 5 4 7 10 9 8 8 8 7 7 6 5 6 5 6 6 5 5 4 4 4 3 3 2 2 1 0 0 1 1 1 1
7 7 3 2 3 1 3 4 5 5 5 5 5 6 9 10 9 9 8 8 7 7 6 5 5 5 5 5 5 5 5 4 3 3 3 3 2 1 0 0 0 1 1 1
1 1 3 3 3 4 4 4 4 4 6 7 7 8 9 9 9 9 8 8 6 7 6 5 5 5 5 5 5 5 4 4 3 3 3 3 2 1 1 0 0 1 0 1
2 2 3 3 3 3 3 3 4 5 6 6 6 8 8 8 8 8 8 7 6 7 7 5 4 4 5 5 4 4 4 3 3 3 2 2 2 1 1 0 0 1 1 1
3 1 1 2 2 3 3 4 5 5 5 6 7 7 7 7 8 8 7 6 6 6 6 6 5 5 6 5 4 4 3 3 3 2 2 2 2 1 1 1 1 0 0 1
4 3 2 3 3 3 3 4 4 5 5 5 5 7 7 7 6 7 7 6 6 6 6 6 6 6 5 4 4 3 3 3 2 2 2 1 1 1 1 1 2 1 2 2
1 2 2 3 3 3 3 3 4 4 5 6 5 6 7 6 6 6 7 7 7 6 6 6 6 5 5 4 3 3 3 3 2 2 1 1 1 1 1 2 3 4 4 5
3 3 2 2 2 3 4 4 4 4 4 5 5 6 6 6 6 7 7 6 6 6 6 6 6 5 4 4 3 3 3 3 2 1 1 1 1 1 1 1 2 2 4 6
2 2 2 3 3 3 4 4 5 5 5 5 5 6 7 7 7 6 6 6 6 6 6 6 6 5 4 4 4 3 2 2 2 1 1 0 1 1 1 2 2 2 2 3
3 3 3 4 4 4 4 5 5 5 5 5 6 6 6 6 6 5 6 6 6 6 6 5 5 5 5 4 3 2 2 2 1 0 1 1 1 1 1 2 2 2 2 2
4 5 5 5 5 5 4 4 5 5 5 5 5 6 6 6 6 6 5 5 5 5 5 5 5 4 4 4 3 2 2 2 2 1 1 1 1 1 2 2 2 2 2 3
4 4 5 5 5 5 5 5 4 4 5 5 6 6 6 6 6 6 5 5 5 5 4 5 5 4 4 4 3 2 1 1 1 1 1 1 1 1 2 2 3 3 3 3
3 3 3 3 3 3 4 4 5 5 5 6 6 6 5 5 5 5 5 5 5 5 4 5 6 4 3 3 2 1 1 1 1 1 1 1 1 2 2 3 3 3 3 3
3 3 3 3 3 3 3 4 5 5 5 6 6 6 5 5 6 6 5 4 3 3 5 5 4 3 3 3 2 1 1 1 1 1 1 1 2 2 2 3 3 3 3 3
4 4 4 3 3 3 3 4 5 5 5 5 5 5 6 5 5 5 5 4 4 5 5 5 4 3 3 2 2 1 0 0 1 1 1 1 2 2 3 3 3 3 3 3
4 4 4 4 4 4 4 4 5 5 5 5 5 5 5 5 5 4 4 3 5 7 5 3 3 4 3 2 1 0 0 1 1 1 1 1 2 2 3 3 3 3 3 3
3 4 4 4 5 4 4 4 5 5 5 5 5 5 5 4 4 4 4 4 5 7 4 3 5 5 3 1 1 1 1 1 1 1 1 2 2 2 3 3 3 3 3 3
3 3 3 3 4 4 5 4 5 4 5 4 4 5 5 4 3 3 4 6 7 7 4 4 5 3 1 1 1 1 1 1 1 1 2 2 2 3 3 3 3 3 3 4
3 3 4 4 4 3 4 5 5 5 5 4 5 4 4 3 4 4 5 5 6 6 4 4 4 2 1 1 1 0 0 1 1 2 2 2 2 2 3 3 3 3 3 4
2 2 2 3 3 2 3 4 4 4 4 4 4 4 4 4 5 5 4 4 5 4 3 3 2 2 1 0 0 1 0 1 1 2 2 2 2 2 2 3 4 3 3 4
2 2 2 2 2 2 2 3 3 3 4 4 5 4 4 4 4 4 5 4 3 3 2 2 2 1 1 1 0 1 1 1 1 1 2 2 2 2 3 4 3 3 4 4
Wind_Direction
245 242 249 241 241 236 236 245 261 248 181 181 173 159 151 147 148 151 152 152 151 153 152 155 150 141 135 131 130 129 122 112 104 95 86 74 57 56 39 26 22 25 42 39
259 237 238 253 242 236 239 243 241 236 235 180 159 155 151 150 152 155 155 156 157 156 154 158 152 144 138 139 140 135 127 121 116 106 97 89 67 42 49 45 13 9 29 52
272 263 248 248 238 227 228 235 228 227 211 158 155 161 159 156 156 157 157 155 156 159 159 160 153 148 148 149 143 137 132 126 124 121 112 110 102 79 63 62 27 8 16 51
263 256 253 249 207 201 214 238 232 200 168 161 158 147 145 148 154 156 154 154 156 155 151 150 146 145 147 146 145 143 139 134 133 134 130 120 97 86 83 82 77 42 25 34
256 257 260 234 207 197 204 232 228 184 163 157 146 131 136 141 146 146 146 148 146 145 141 141 141 143 144 145 143 139 135 136 136 129 124 116 110 84 6 42 47 335 139 65
259 260 264 205 145 139 213 234 159 130 135 147 148 153 152 144 139 137 136 135 132 130 129 131 137 144 148 148 142 138 135 134 128 125 128 137 148 143 37 52 358 326 357 35
251 258 267 75 113 163 213 174 106 121 130 140 153 141 133 133 130 128 126 126 123 120 119 125 132 138 143 140 140 135 129 126 128 135 144 142 130 114 102 55 344 322 336 357
229 242 235 99 135 138 65 78 90 108 123 123 116 109 118 125 126 126 123 122 123 122 119 112 116 125 126 121 117 113 114 119 130 142 149 127 120 123 125 60 285 294 318 329
252 157 97 96 79 67 69 79 83 93 106 116 122 122 122 128 130 131 130 128 126 126 123 115 113 117 117 114 117 120 125 133 142 141 129 123 133 151 158 212 258 292 319 305
226 157 125 113 91 82 81 85 91 98 108 116 119 125 130 134 135 133 130 131 132 134 133 131 127 119 117 117 124 135 144 148 141 133 126 118 107 110 109 51 352 346 351 339
243 210 156 154 129 105 92 95 100 105 114 120 125 132 135 137 139 139 136 136 137 139 141 140 133 123 120 124 129 140 139 129 123 114 111 101 93 65 98 89 128 158 317 325
233 208 207 159 131 119 121 121 119 123 126 125 132 138 140 140 138 139 141 140 140 143 143 141 135 130 131 137 143 144 134 128 119 112 108 113 121 56 37 171 166 173 215 241
313 78 96 106 115 126 126 120 119 124 136 138 138 138 137 136 138 140 143 144 148 147 145 142 135 133 135 138 140 134 122 115 111 114 118 141 173 192 256 272 253 251 252 256
97 98 113 126 129 132 136 134 130 132 134 137 139 135 135 136 139 145 149 147 145 145 143 139 135 137 137 130 121 120 114 114 112 115 129 180 225 237 238 250 268 267 254 254
162 159 143 123 124 141 144 146 145 146 140 139 139 139 142 145 147 147 145 144 142 142 140 139 139 137 131 127 126 124 117 122 121 123 149 212 248 265 277 286 284 280 279 269
174 159 154 162 169 167 168 163 158 156 151 150 148 146 144 142 139 140 144 147 148 149 147 143 140 133 124 120 121 122 120 128 116 144 233 238 252 268 275 279 286 291 289 287
173 177 179 185 183 180 178 173 167 162 160 159 153 145 142 142 143 145 144 141 140 139 138 135 133 129 128 127 128 129 129 147 180 225 238 246 263 283 283 282 284 287 282 281
191 192 190 191 187 182 178 170 163 159 159 154 145 145 152 156 154 150 145 140 137 136 138 131 125 127 128 126 126 129 146 171 197 218 239 256 286 289 290 286 285 288 285 284
176 176 175 176 176 176 174 165 156 151 148 148 151 157 160 156 151 149 147 147 147 148 140 124 130 137 129 121 117 131 166 205 246 260 264 280 282 277 281 284 284 282 284 289
158 157 156 156 156 154 155 145 142 144 148 152 157 160 162 159 155 153 152 153 149 138 130 129 139 137 129 122 110 134 185 218 253 271 274 268 275 283 285 286 289 292 293 293
156 151 152 151 142 141 142 143 145 148 149 155 161 162 158 155 156 154 148 145 132 121 127 136 135 123 115 113 126 148 188 263 273 274 281 286 292 296 298 301 305 306 306 307
162 157 154 148 144 147 147 146 145 147 152 157 155 153 149 149 145 136 127 131 126 126 129 131 117 111 110 105 128 130 210 291 298 301 299 298 299 300 301 305 305 307 310 310
166 158 158 161 160 152 141 141 143 144 148 151 154 154 147 137 138 141 139 125 123 123 120 117 116 119 119 132 154 183 236 267 279 286 290 290 292 297 300 303 305 309 309 309
162 160 159 157 152 152 154 146 139 139 137 132 133 135 135 129 124 115 113 123 124 121 115 125 127 129 144 195 196 210 230 254 276 288 296 298 297 297 299 302 305 307 309 313
160 160 162 163 164 160 154 145 143 141 137 132 131 127 124 119 121 118 116 119 122 121 119 137 144 162 215 223 212 243 272 279 297 305 291 289 290 295 301 305 310 312 312 308
161 158 160 164 147 139 147 150 151 148 145 140 135 126 116 110 111 116 122 130 131 127 132 145 161 189 224 219 281 290 281 295 301 293 290 297 303 307 306 309 311 311 307 302
143 135 130 131 128 141 146 147 149 150 147 142 136 130 127 127 128 130 132 138 139 138 137 143 155 175 188 177 204 274 290 293 305 309 308 310 312 313 311 311 309 304 301 299